Location: Sabalos
(43.2860°N, 0.1414°E)
Time: 08:46:47
(UTC+00:00)

Cosmos 2341 Rocket - Pass Details

Date: 05 July 2020
Orbit: 969 x 1004 km, 82.9° (Epoch: 14 August)

Event Time Altitude Azimuth Distance (km) Brightness Sun altitude
Exits shadow 23:11:49 46° 180° (S) 1,278 4.1 -23.0°
Maximum altitude 23:13:48 85° 97° (E) 983 3.9 -23.0°
Drops below altitude 10° 23:20:03 10° 9° (N) 2,723 7.3 -23.3°
Sets 23:22:34 0° 9° (N) 3,672 8.2 -23.4°
